User: anonymous   Login
Location: Unspecified
(0.0000°N, 0.0000°E)
Time: 11:30:17
(UTC+02:00)
Language:

Cosmos 773 Rocket - Orbit

View from above orbital plane
View from above orbital plane
View from above satellite
View from above satellite

Ground track
Ground track

The orbit data is extracted from the following two-line orbital elements,

1  8344U 75094B   18172.46393497 -.00000058 +00000-0 -10268-4 0  9994
2  8344 074.0541 165.1545 0022425 330.8893 029.1010 14.39120120238546
Epoch (UTC): 21 June 2018 11:08:03
Eccentricity: 0.0022425
inclination: 74.0541°
perigee height: 745 km
apogee height: 777 km
right ascension of ascending node: 165.1545°
argument of perigee: 330.8893°
revolutions per day: 14.39120120
mean anomaly at epoch: 29.1010°
orbit number at epoch: 23854

The dashed part of the orbit path shows where the satellite is in the earth's shadow,  

DLR